Location: Unspecified
(0.0000°N, 0.0000°E)
Time: 04:00:32
(UTC+00:00)

MERIDIAN 4 - Visible Passes

Search period start: 14 May 2026 00:00
Search period end: 24 May 2026 00:00
Orbit: 139 x 39704 km, 62.1° (Epoch: 11 May)

Date Brightness Start Highest point End Pass type
(mag) Time Alt. Az. Time Alt. Az. Time Alt. Az.
14 May ? 13:48:12 10° SSW 14:03:22 81° WNW 00:55:31 68° ENE visible
15 May ? 13:21:30 10° SSW 13:35:44 88° ESE 00:28:43 58° ENE visible
16 May ? 12:54:41 10° SSW 13:08:24 77° ESE 00:01:41 49° ENE visible
17 May ? 12:27:46 10° S 12:41:24 66° E 23:34:26 40° ENE visible
18 May ? 12:00:45 10° S 22:53:10 38° NE 23:06:57 32° ENE visible
19 May ? 11:33:44 10° SSE 22:19:39 33° NE 22:39:15 25° ENE visible
20 May ? 11:06:45 10° SSE 21:44:38 28° NE 22:11:19 18° ENE visible
21 May ? 10:40:04 10° SE 21:07:47 23° NE 21:43:09 11° E visible
22 May ? 10:14:14 10° ESE 20:28:40 19° NE 21:09:28 10° ENE visible
23 May ? 09:51:31 10° ESE 19:46:32 15° NE 20:29:58 10° ENE visible
